Weather in La Massana

Andorra     42°32′29″N   1°31′03″E
temp.,
°C
wind,
m/s
gust,
m/s
humid.,
%
clouds,
%
prec.,
mm/h
press.,
hPa
HPBL,
m
8 august, mon
mon823:00+11nne328399 0.0 102232
02:00+12nne217820 0.0 102113
05:00+12nne22760 0.0 102017
08:00+13nne22745 0.0 102020
11:00+21sw11475 0.0 10191164
14:00+23wsw243686 0.0 10182511
17:00+16wsw1176100 2.5 1019343
20:00+14nw1291100 7.6 102367
9 august, tue
tue923:00+13ne3381100 0.0 102335
02:00+12nne32700 0.0 102323
05:00+12ne226489 0.0 102217
08:00+14ne226545 0.0 102322
11:00+21ssw114026 0.0 10211181
14:00+24sw333570 0.0 10202499
17:00+16n2377100 1.4 1022103
20:00+13sw1289100 13.3 102542
10 august, wed
wed1023:00+12nne32723 0.0 102424
02:00+12ne326497 0.0 102325
05:00+13ne2255100 0.0 102217
08:00+14ne22540 0.0 102220
11:00+21ssw223455 0.0 10201218
14:00+24sw3331100 0.0 10192406
17:00+21sw234397 0.0 10191014
20:00+13ene2488100 4.4 102293
11 august, thu
thu1123:00+13ne1270100 0.0 102218
02:00+13nne227321 0.0 102116
05:00+13ne227022 0.0 102015
08:00+14ne1173100 0.2 102013
11:00+20ssw235290 0.1 1019579
14:00+24sw333788 0.1 10181807
17:00+20ene1356100 0.8 1018694
20:00+16e237736 1.8 102064
12 august, fri
fri1223:00+14nne11760 0.1 102114
02:00+14nne227211 0.1 102013
05:00+14nne226937 0.0 101917
08:00+16ne22665 0.0 101923
11:00+24sw12386 0.0 10171521
14:00+25ssw133582 0.0 10162302
17:00+21nne345067 0.0 1017447
20:00+15ne348269 2.0 1020102